| time (UTC) | temp F | wind direction | speed MPH | gust MPH | rain 1hr in | rain 24hr in | rain mn in | humidity % | barometer mb |
| 20260506214526 | 55 | 304 | 1.0 | 8.0 | 0.00 | 0.70 | 0.21 | 54 | 1010.6 |
| 20260506213605 | 55 | 304 | 2.0 | 8.0 | 0.00 | 0.70 | 0.21 | 55 | 1010.6 |
| 20260506212705 | 56 | 296 | 1.0 | 8.0 | 0.00 | 0.80 | 0.21 | 55 | 1010.5 |
| 20260506211805 | 56 | 284 | 1.0 | 8.0 | 0.00 | 0.80 | 0.21 | 56 | 1010.4 |
| 20260506210905 | 56 | 306 | 2.0 | 8.0 | 0.00 | 0.80 | 0.21 | 56 | 1010.4 |
| 20260506210005 | 56 | 298 | 2.0 | 10.0 | 0.00 | 0.80 | 0.21 | 55 | 1010.5 |
| 20260506205405 | 55 | 300 | 1.0 | 8.0 | 0.00 | 0.80 | 0.21 | 54 | 1010.4 |
| 20260506204505 | 56 | 299 | 1.0 | 10.0 | 0.00 | 0.80 | 0.21 | 55 | 1010.3 |
| 20260506203626 | 56 | 316 | 2.0 | 10.0 | 0.00 | 0.80 | 0.21 | 58 | 1010.1 |
| 20260506202705 | 56 | 301 | 1.0 | 10.0 | 0.00 | 0.80 | 0.21 | 57 | 1010.0 |
| 20260506201805 | 56 | 307 | 2.0 | 10.0 | 0.00 | 0.80 | 0.21 | 58 | 1009.9 |
| 20260506200926 | 56 | 313 | 1.0 | 10.0 | 0.00 | 0.80 | 0.21 | 62 | 1009.9 |
| 20260506200005 | 57 | 309 | 1.0 | 10.0 | 0.00 | 0.80 | 0.21 | 58 | 1010.1 |
| 20260506195405 | 56 | 306 | 1.0 | 10.0 | 0.00 | 0.80 | 0.21 | 58 | 1010.0 |
| 20260506194526 | 56 | 290 | 3.0 | 15.0 | 0.00 | 0.80 | 0.21 | 59 | 1010.3 |
| 20260506193605 | 57 | 295 | 2.0 | 8.0 | 0.00 | 0.80 | 0.21 | 57 | 1010.0 |
| 20260506192726 | 57 | 296 | 1.0 | 8.0 | 0.00 | 0.80 | 0.21 | 61 | 1010.0 |
| 20260506191805 | 60 | 307 | 1.0 | 8.0 | 0.00 | 0.80 | 0.21 | 64 | 1009.9 |
| 20260506190905 | 59 | 302 | 1.0 | 8.0 | 0.00 | 0.80 | 0.21 | 60 | 1009.7 |
| 20260506190006 | 60 | 306 | 2.0 | 10.0 | 0.00 | 0.80 | 0.21 | 59 | 1009.7 |
| 20260506185405 | 61 | 306 | 2.0 | 10.0 | 0.00 | 0.80 | 0.21 | 61 | 1009.6 |
| 20260506184504 | 60 | 284 | 3.0 | 13.0 | 0.00 | 0.80 | 0.21 | 53 | 1010.2 |
| 20260506183604 | 60 | 295 | 2.0 | 8.0 | 0.00 | 0.80 | 0.21 | 54 | 1010.0 |
| 20260506182725 | 61 | 291 | 2.0 | 8.0 | 0.00 | 0.80 | 0.21 | 57 | 1010.0 |
| 20260506181804 | 61 | 319 | 1.0 | 10.0 | 0.00 | 0.80 | 0.21 | 52 | 1010.0 |
| 20260506180905 | 61 | 289 | 1.0 | 8.0 | 0.00 | 0.80 | 0.21 | 50 | 1010.1 |
| 20260506180026 | 62 | 303 | 2.0 | 10.0 | 0.00 | 0.80 | 0.21 | 68 | 1010.1 |
| 20260506175404 | 59 | 298 | 2.0 | 10.0 | 0.00 | 0.80 | 0.21 | 58 | 1010.1 |
| 20260506174504 | 59 | 297 | 1.0 | 10.0 | 0.00 | 0.80 | 0.21 | 63 | 1010.1 |
| 20260506173604 | 60 | 304 | 2.0 | 10.0 | 0.00 | 0.80 | 0.21 | 64 | 1010.2 |
| 20260506172704 | 60 | 298 | 2.0 | 8.0 | 0.00 | 0.80 | 0.21 | 65 | 1010.1 |
| 20260506171804 | 60 | 312 | 2.0 | 10.0 | 0.00 | 0.80 | 0.21 | 60 | 1009.8 |
| 20260506170904 | 59 | 308 | 2.0 | 13.0 | 0.00 | 0.80 | 0.21 | 61 | 1010.1 |
| 20260506170004 | 60 | 309 | 1.0 | 8.0 | 0.00 | 0.80 | 0.21 | 62 | 1010.2 |
| 20260506165404 | 58 | 306 | 1.0 | 10.0 | 0.00 | 0.80 | 0.21 | 62 | 1010.3 |
| 20260506164504 | 58 | 306 | 1.0 | 10.0 | 0.00 | 0.80 | 0.21 | 63 | 1010.1 |
| 20260506163604 | 60 | 308 | 2.0 | 8.0 | 0.00 | 0.80 | 0.21 | 66 | 1010.4 |
| 20260506162704 | 59 | 307 | 1.0 | 8.0 | 0.00 | 0.80 | 0.21 | 65 | 1010.4 |
| 20260506161804 | 59 | 285 | 1.0 | 5.0 | 0.00 | 0.80 | 0.21 | 70 | 1010.2 |
| 20260506160904 | 58 | 308 | 1.0 | 8.0 | 0.00 | 0.80 | 0.21 | 67 | 1009.9 |
| 20260506160004 | 57 | 306 | 2.0 | 8.0 | 0.00 | 0.80 | 0.21 | 67 | 1009.8 |
| 20260506155405 | 57 | 302 | 2.0 | 10.0 | 0.00 | 0.80 | 0.21 | 71 | 1009.8 |
| 20260506154504 | 56 | 309 | 1.0 | 13.0 | 0.00 | 0.80 | 0.21 | 68 | 1009.9 |
| 20260506153604 | 55 | 305 | 1.0 | 8.0 | 0.00 | 0.80 | 0.21 | 72 | 1009.5 |
| 20260506152704 | 54 | 284 | 2.0 | 10.0 | 0.00 | 0.80 | 0.21 | 72 | 1009.5 |
| 20260506151804 | 54 | 314 | 1.0 | 5.0 | 0.00 | 0.80 | 0.21 | 71 | 1009.4 |
| 20260506150904 | 53 | 305 | 1.0 | 5.0 | 0.00 | 0.80 | 0.21 | 72 | 1009.5 |
| 20260506150004 | 53 | 308 | 1.0 | 8.0 | 0.00 | 0.80 | 0.21 | 79 | 1009.5 |
| 20260506145404 | 52 | 303 | 1.0 | 10.0 | 0.00 | 0.80 | 0.21 | 79 | 1009.6 |
| 20260506144504 | 51 | 299 | 1.0 | 8.0 | 0.00 | 0.80 | 0.21 | 77 | 1009.6 |
| 20260506143604 | 50 | 296 | 1.0 | 8.0 | 0.00 | 0.80 | 0.21 | 81 | 1009.3 |
| 20260506142704 | 49 | 305 | 1.0 | 8.0 | 0.00 | 0.80 | 0.21 | 81 | 1009.2 |
| 20260506141804 | 49 | 297 | 1.0 | 8.0 | 0.00 | 0.80 | 0.21 | 83 | 1009.2 |
| 20260506140925 | 48 | 293 | 1.0 | 8.0 | 0.00 | 0.80 | 0.21 | 85 | 1009.0 |
| 20260506140004 | 47 | 298 | 1.0 | 5.0 | 0.00 | 0.80 | 0.21 | 91 | 1008.5 |
| 20260506135404 | 47 | 302 | 1.0 | 5.0 | 0.00 | 0.80 | 0.21 | 94 | 1008.8 |
| 20260506134504 | 46 | 310 | 1.0 | 8.0 | 0.00 | 0.80 | 0.21 | 96 | 1008.6 |
| 20260506133603 | 47 | 293 | 0.0 | 8.0 | 0.00 | 0.80 | 0.21 | 100 | 1008.3 |
| 20260506132703 | 46 | 302 | 1.0 | 8.0 | 0.00 | 0.80 | 0.21 | 100 | 1008.6 |
| 20260506131824 | 45 | 295 | 1.0 | 10.0 | 0.00 | 0.80 | 0.21 | 100 | 1008.7 |
| 20260506130904 | 46 | 309 | 0.0 | 5.0 | 0.00 | 0.80 | 0.21 | 100 | 1008.6 |
| 20260506130004 | 46 | 305 | 1.0 | 8.0 | 0.00 | 0.80 | 0.21 | 100 | 1008.6 |
| 20260506125403 | 45 | 286 | 1.0 | 8.0 | 0.00 | 0.80 | 0.21 | 100 | 1008.6 |
| 20260506124503 | 46 | 296 | 1.0 | 8.0 | 0.00 | 0.80 | 0.21 | 100 | 1007.9 |
| 20260506123603 | 46 | 298 | 0.0 | 5.0 | 0.00 | 0.80 | 0.21 | 100 | 1007.4 |
| 20260506122703 | 47 | 310 | 0.0 | 5.0 | 0.00 | 0.80 | 0.21 | 100 | 1007.9 |
| 20260506121824 | 47 | 296 | 0.0 | 5.0 | 0.00 | 0.80 | 0.21 | 100 | 1007.2 |
| 20260506120904 | 46 | 290 | 0.0 | 5.0 | 0.00 | 0.80 | 0.21 | 100 | 1007.4 |
| 20260506120008 | 46 | 309 | 0.0 | 2.0 | 0.00 | 0.80 | 0.21 | 100 | 1007.6 |
| 20260506115408 | 46 | 321 | 0.0 | 2.0 | 0.00 | 0.80 | 0.21 | 100 | 1007.5 |
| 20260506114508 | 46 | 301 | 0.0 | 5.0 | 0.00 | 0.80 | 0.21 | 100 | 1007.5 |
| 20260506113608 | 46 | 308 | 1.0 | 10.0 | 0.00 | 0.80 | 0.21 | 100 | 1007.3 |
| 20260506112708 | 46 | 304 | 2.0 | 10.0 | 0.00 | 0.80 | 0.21 | 100 | 1006.5 |
| 20260506111808 | 46 | 309 | 0.0 | 5.0 | 0.00 | 0.80 | 0.21 | 100 | 1006.1 |
| 20260506110908 | 46 | 295 | 0.0 | 5.0 | 0.00 | 0.80 | 0.21 | 100 | 1006.2 |
| 20260506110008 | 46 | 294 | 1.0 | 8.0 | 0.00 | 0.80 | 0.21 | 100 | 1006.6 |
| 20260506105408 | 46 | 302 | 0.0 | 5.0 | 0.00 | 0.80 | 0.21 | 100 | 1006.3 |
| 20260506104508 | 46 | 303 | 1.0 | 8.0 | 0.00 | 0.80 | 0.21 | 100 | 1006.4 |
| 20260506103608 | 46 | 304 | 0.0 | 8.0 | 0.00 | 0.80 | 0.21 | 100 | 1006.6 |
| 20260506102728 | 46 | 301 | 1.0 | 8.0 | 0.00 | 0.80 | 0.21 | 100 | 1006.5 |
| 20260506101829 | 46 | 299 | 0.0 | 5.0 | 0.00 | 0.80 | 0.21 | 100 | 1006.1 |
| 20260506100908 | 46 | 298 | 0.0 | 2.0 | 0.00 | 0.80 | 0.21 | 100 | 1005.3 |
| 20260506100008 | 46 | 313 | 0.0 | 5.0 | 0.00 | 0.80 | 0.21 | 100 | 1005.4 |
| 20260506095407 | 46 | 301 | 0.0 | 5.0 | 0.00 | 0.80 | 0.21 | 100 | 1005.5 |
| 20260506094507 | 46 | 0 | 0.0 | 0.0 | 0.00 | 0.80 | 0.21 | 100 | 1004.8 |
| 20260506093607 | 46 | 304 | 0.0 | 5.0 | 0.00 | 0.80 | 0.21 | 100 | 1005.3 |
| 20260506092707 | 46 | 302 | 1.0 | 8.0 | 0.00 | 0.80 | 0.21 | 100 | 1005.6 |
| 20260506091828 | 46 | 295 | 1.0 | 10.0 | 0.00 | 0.80 | 0.21 | 100 | 1005.5 |
| 20260506090928 | 47 | 315 | 1.0 | 10.0 | 0.00 | 0.80 | 0.21 | 100 | 1005.0 |
| 20260506090007 | 46 | 302 | 0.0 | 5.0 | 0.00 | 0.80 | 0.21 | 100 | 1005.1 |
| 20260506085428 | 46 | 305 | 0.0 | 10.0 | 0.00 | 0.80 | 0.20 | 100 | 1005.4 |
| 20260506084507 | 46 | 307 | 1.0 | 8.0 | 0.00 | 0.80 | 0.20 | 100 | 1005.6 |
| 20260506083607 | 46 | 288 | 2.0 | 10.0 | 0.00 | 0.70 | 0.19 | 100 | 1005.6 |
| 20260506082728 | 46 | 291 | 3.0 | 13.0 | 0.00 | 0.70 | 0.18 | 100 | 1005.2 |
| 20260506081807 | 46 | 304 | 1.0 | 10.0 | 0.00 | 0.70 | 0.18 | 100 | 1005.3 |
| 20260506080928 | 46 | 292 | 1.0 | 13.0 | 0.00 | 0.70 | 0.17 | 100 | 1005.2 |
| 20260506072728 | 47 | 301 | 1.0 | 8.0 | 0.10 | 0.70 | 0.15 | 100 | 1005.0 |
| 20260506071807 | 47 | 289 | 1.0 | 10.0 | 0.10 | 0.70 | 0.15 | 100 | 1004.7 |
| 20260506070928 | 47 | 295 | 1.0 | 8.0 | 0.10 | 0.70 | 0.14 | 100 | 1004.9 |
| 20260506061807 | 49 | 299 | 0.0 | 8.0 | 0.00 | 0.60 | 0.06 | 100 | 1004.6 |
| 20260506060907 | 49 | 301 | 1.0 | 8.0 | 0.00 | 0.60 | 0.05 | 100 | 1004.6 |
| 20260506050907 | 50 | 295 | 1.0 | 8.0 | 0.00 | 0.60 | 0.00 | 100 | 1004.9 |
| 20260506044506 | 50 | 315 | 0.0 | 5.0 | 0.00 | 0.60 | 0.00 | 100 | 1004.9 |
| 20260506043606 | 50 | 317 | 0.0 | 5.0 | 0.00 | 0.60 | 0.00 | 100 | 1004.9 |
| 20260506042706 | 50 | 308 | 0.0 | 5.0 | 0.00 | 0.60 | 0.00 | 100 | 1005.1 |
| 20260506041806 | 49 | 298 | 0.0 | 5.0 | 0.00 | 0.60 | 0.00 | 100 | 1005.2 |
| 20260506040927 | 50 | 301 | 0.0 | 2.0 | 0.10 | 0.60 | 0.00 | 100 | 1005.1 |
| 20260506040006 | 49 | 285 | 0.0 | 8.0 | 0.10 | 0.60 | 0.00 | 100 | 1005.5 |
| 20260506035427 | 49 | 315 | 0.0 | 8.0 | 0.10 | 0.60 | 0.56 | 100 | 1005.4 |
| 20260506034527 | 50 | 282 | 1.0 | 10.0 | 0.10 | 0.50 | 0.54 | 100 | 1005.4 |
| 20260506033606 | 50 | 297 | 1.0 | 8.0 | 0.10 | 0.50 | 0.53 | 100 | 1005.6 |
| 20260506032706 | 51 | 292 | 1.0 | 5.0 | 0.10 | 0.50 | 0.52 | 100 | 1005.9 |
| 20260506031806 | 51 | 305 | 2.0 | 10.0 | 0.10 | 0.50 | 0.51 | 100 | 1005.9 |
| 20260506030906 | 51 | 297 | 1.0 | 10.0 | 0.10 | 0.50 | 0.48 | 100 | 1006.1 |
| 20260506030006 | 53 | 288 | 1.0 | 10.0 | 0.10 | 0.50 | 0.46 | 100 | 1005.9 |
| 20260506025427 | 54 | 294 | 1.0 | 10.0 | 0.10 | 0.40 | 0.45 | 100 | 1005.6 |
| 20260506024506 | 56 | 284 | 0.0 | 8.0 | 0.10 | 0.40 | 0.43 | 100 | 1005.5 |
| 20260506023606 | 59 | 0 | 0.0 | 0.0 | 0.10 | 0.40 | 0.41 | 100 | 1005.5 |
| 20260506022706 | 59 | 0 | 0.0 | 0.0 | 0.10 | 0.40 | 0.39 | 100 | 1005.4 |
| 20260506021827 | 59 | 0 | 0.0 | 0.0 | 0.10 | 0.40 | 0.38 | 100 | 1005.4 |
| 20260506020906 | 59 | 218 | 0.0 | 2.0 | 0.10 | 0.40 | 0.35 | 100 | 1005.4 |
| 20260506020027 | 59 | 0 | 0.0 | 0.0 | 0.10 | 0.30 | 0.33 | 100 | 1005.5 |
| 20260506015427 | 59 | 0 | 0.0 | 0.0 | 0.10 | 0.30 | 0.31 | 100 | 1005.7 |
| 20260506014506 | 59 | 0 | 0.0 | 0.0 | 0.00 | 0.30 | 0.28 | 100 | 1005.5 |
| 20260506013606 | 59 | 0 | 0.0 | 0.0 | 0.00 | 0.30 | 0.27 | 100 | 1005.5 |
| 20260506012706 | 59 | 0 | 0.0 | 0.0 | 0.00 | 0.30 | 0.26 | 100 | 1005.3 |
| 20260506011827 | 59 | 0 | 0.0 | 0.0 | 0.00 | 0.30 | 0.26 | 100 | 1005.3 |
| 20260506010906 | 59 | 144 | 0.0 | 2.0 | 0.00 | 0.20 | 0.25 | 100 | 1005.2 |
| 20260506010006 | 60 | 114 | 0.0 | 5.0 | 0.00 | 0.20 | 0.25 | 100 | 1005.0 |
| 20260506005406 | 60 | 108 | 0.0 | 5.0 | 0.00 | 0.20 | 0.25 | 100 | 1005.2 |
| 20260506004506 | 60 | 0 | 0.0 | 0.0 | 0.00 | 0.20 | 0.24 | 100 | 1005.4 |
| 20260506003606 | 60 | 273 | 0.0 | 2.0 | 0.00 | 0.20 | 0.22 | 100 | 1005.4 |
| 20260506002705 | 60 | 0 | 0.0 | 0.0 | 0.00 | 0.20 | 0.22 | 100 | 1005.1 |
| 20260506001806 | 60 | 104 | 0.0 | 2.0 | 0.00 | 0.20 | 0.22 | 100 | 1005.1 |
| 20260506000905 | 60 | 104 | 0.0 | 2.0 | 0.00 | 0.20 | 0.21 | 100 | 1005.3 |
| 20260506000005 | 60 | 0 | 0.0 | 0.0 | 0.00 | 0.20 | 0.21 | 100 | 1004.9 |
| 20260505235405 | 60 | 0 | 0.0 | 0.0 | 0.00 | 0.20 | 0.20 | 100 | 1005.1 |
| 20260505234506 | 60 | 94 | 0.0 | 2.0 | 0.00 | 0.20 | 0.20 | 100 | 1005.2 |
| 20260505233626 | 60 | 0 | 0.0 | 0.0 | 0.00 | 0.20 | 0.19 | 100 | 1005.3 |
| 20260505232705 | 60 | 0 | 0.0 | 0.0 | 0.00 | 0.20 | 0.19 | 100 | 1005.7 |
| 20260505231805 | 60 | 265 | 0.0 | 2.0 | 0.00 | 0.20 | 0.19 | 100 | 1005.5 |
| 20260505230926 | 60 | 358 | 0.0 | 2.0 | 0.00 | 0.20 | 0.19 | 100 | 1005.6 |
| 20260505230005 | 60 | 0 | 0.0 | 0.0 | 0.10 | 0.20 | 0.19 | 100 | 1005.7 |
| 20260505225405 | 60 | 187 | 0.0 | 2.0 | 0.10 | 0.20 | 0.19 | 100 | 1005.8 |
| 20260505224505 | 60 | 243 | 0.0 | 2.0 | 0.10 | 0.20 | 0.18 | 100 | 1005.7 |
| 20260505223605 | 60 | 233 | 0.0 | 2.0 | 0.10 | 0.20 | 0.18 | 100 | 1005.7 |
| 20260505222705 | 60 | 280 | 0.0 | 2.0 | 0.20 | 0.20 | 0.17 | 100 | 1006.0 |
| 20260505221805 | 60 | 206 | 0.0 | 2.0 | 0.20 | 0.20 | 0.15 | 100 | 1005.7 |
| 20260505220905 | 60 | 227 | 0.0 | 2.0 | 0.10 | 0.10 | 0.14 | 100 | 1006.0 |
| 20260505220005 | 60 | 216 | 0.0 | 5.0 | 0.10 | 0.10 | 0.13 | 97 | 1005.9 |
| 20260505215405 | 60 | 234 | 1.0 | 5.0 | 0.10 | 0.10 | 0.12 | 96 | 1005.8 |